Погода в Петровском

Украина / Луганская область     49°20′06″N   39°08′17″E
темп.,
°C
ветер,
м/с
пор.,
м/с
влажн.,
%
обл.,
%
осадки,
мм/ч
давл.,
гПа
погр.,
м
16 октября, сб
сб1600:00+9вюв2256100 0.0 102436
03:00+9в355881 0.0 102398
06:00+6в377018 0.0 1023121
09:00+9вюв595580 0.0 1022325
12:00+15вюв564188 0.0 1020813
15:00+16вюв4442100 0.0 1018954
18:00+13в3354100 0.0 101830
21:00+12в3357100 0.0 101837
17 октября, вс
вс1700:00+11всв2256100 0.0 101719
03:00+10св2259100 0.0 101727
06:00+10св335899 0.0 101765
09:00+12всв3451100 0.0 1017202
12:00+16св3340100 0.0 1016725
15:00+16с3339100 0.0 10151011
18:00+14св3348100 0.0 101659
21:00+12с3454100 0.0 101673
18 октября, пн
пн1800:00+11с2463100 0.0 101684
03:00+9ссз346897 0.0 101668
06:00+10ссз366452 0.0 1016198
09:00+10ссз346388 0.0 1017280
12:00+14зсз444751 0.0 1016996
15:00+14зсз564077 0.0 10151376
18:00+11сз4750100 0.0 1016243
21:00+9зсз3658100 0.0 1016174
19 октября, вт
вт1900:00+7з3660100 0.0 1016134
03:00+8зсз4859100 0.0 1016464
06:00+7з367883 0.0 1016388
09:00+8з5772100 0.0 1017558
12:00+9зсз5659100 0.0 1017987
15:00+11сз4541100 0.1 10161721
18:00+8сз344310 0.0 101754
21:00+5ссз37441 0.0 1018140
20 октября, ср
ср2000:00+3ссз495963 0.0 1020223
03:00+3сз497520 0.0 1021304
06:00+1сз49865 0.0 1023269
09:00+3ссз57735 0.0 1025569
12:00+7ссз564669 0.0 10261460
15:00+8ссз5638100 0.0 10261906
18:00+5зсз334662 0.0 102729
21:00+4з22535 0.0 102827